Location: Lancaster
(34.6980°N, 118.1360°W)
Time: 11:07:14
(UTC-08:00)

Vanguard 1 Rocket - All Passes

Search period start: 17 November 2017 00:00
Search period end: 27 November 2017 00:00
Orbit: 655 x 4222 km, 34.3° (Epoch: 16 November)

Date Brightness Start Highest point End Pass type
(mag) Time Alt. Az. Time Alt. Az. Time Alt. Az.
17 Nov - 00:37:07 10° WSW 01:03:52 87° S 01:21:17 10° E visible
17 Nov - 03:12:22 10° W 03:35:26 81° SSW 03:47:22 10° ESE visible
17 Nov - 05:47:53 10° WNW 06:02:20 38° SW 06:10:21 10° SSE visible
17 Nov - 18:35:14 10° SSE 18:47:09 17° SE 19:00:48 10° E visible
17 Nov - 20:54:06 10° SSW 21:15:59 51° SE 21:39:08 10° ENE visible
17 Nov - 23:22:12 10° WSW 23:48:36 81° SSE 00:09:03 10° E visible
18 Nov - 01:55:59 10° W 02:21:39 88° S 02:36:18 10° E visible
18 Nov - 04:31:36 10° WNW 04:50:55 58° SSW 05:00:53 10° SE visible
18 Nov - 07:09:09 10° W 07:15:11 15° WSW 07:19:47 10° SSW daylight
18 Nov - 19:43:34 10° SSW 20:02:05 37° SE 20:23:54 10° ENE visible
18 Nov - 22:08:33 10° SW 22:33:12 71° SSE 22:56:08 10° ENE visible
19 Nov - 00:40:03 10° W 01:06:54 89° S 01:24:36 10° E visible
19 Nov - 03:15:14 10° WNW 03:38:24 75° SSW 03:50:36 10° ESE visible
19 Nov - 05:51:11 10° W 06:04:46 31° SW 06:12:49 10° S visible
19 Nov - 18:35:01 10° S 18:49:07 23° SE 19:06:19 10° E visible
19 Nov - 20:56:13 10° SW 21:18:13 58° SE 21:42:20 10° ENE visible
19 Nov - 23:25:02 10° WSW 23:51:27 85° SSE 00:12:18 10° E visible
20 Nov - 01:58:55 10° W 02:24:42 85° SSW 02:39:36 10° ESE visible
20 Nov - 04:34:31 10° WNW 04:53:33 50° SW 05:03:46 10° SE visible
20 Nov - 17:32:49 10° SE 17:36:55 11° ESE 17:41:20 10° ESE visible
20 Nov - 19:45:16 10° SSW 20:04:07 44° SE 20:27:23 10° ENE visible
20 Nov - 22:11:12 10° WSW 22:35:49 77° SSE 22:59:17 10° ENE visible
21 Nov - 00:43:03 10° W 01:09:56 89° S 01:27:55 10° E visible
21 Nov - 03:18:04 10° WNW 03:41:13 68° SSW 03:53:43 10° SE visible
21 Nov - 05:54:50 10° W 06:07:02 24° SW 06:14:53 10° S visible
21 Nov - 18:35:53 10° S 18:51:01 30° SE 19:10:42 10° E visible
21 Nov - 20:58:38 10° SW 21:20:34 66° SSE 21:45:27 10° ENE visible
21 Nov - 23:28:00 10° WSW 23:54:22 88° S 00:15:32 10° E visible
22 Nov - 02:01:50 10° W 02:27:40 81° SSW 02:42:51 10° ESE visible
22 Nov - 04:37:32 10° WNW 04:55:59 42° SW 05:06:25 10° SSE visible
22 Nov - 17:29:21 10° SSE 17:38:52 16° ESE 17:50:29 10° E visible
22 Nov - 19:47:19 10° SSW 20:06:12 51° SE 20:30:38 10° ENE visible
22 Nov - 22:14:02 10° WSW 22:38:31 82° SSE 23:02:25 10° E visible
23 Nov - 00:46:03 10° W 01:12:57 88° S 01:31:13 10° ESE visible
23 Nov - 03:20:56 10° WNW 03:43:53 60° SSW 03:56:40 10° SE visible
23 Nov - 05:59:06 10° W 06:09:12 19° SW 06:16:21 10° SSW visible
23 Nov - 18:37:22 10° SSW 18:52:57 36° SE 19:14:27 10° ENE visible
23 Nov - 21:01:17 10° SW 21:23:01 72° SSE 21:48:30 10° ENE visible
23 Nov - 23:31:02 10° W 23:57:20 89° S 00:18:48 10° E visible
24 Nov - 02:04:44 10° WNW 02:30:30 75° SSW 02:45:59 10° ESE visible
24 Nov - 04:40:45 10° WNW 04:58:15 35° SW 05:08:47 10° SSE visible
24 Nov - 17:29:21 10° SSE 17:40:46 22° SE 17:56:01 10° E visible
24 Nov - 19:49:42 10° SW 20:08:24 59° SE 20:33:42 10° ENE visible
24 Nov - 22:17:01 10° WSW 22:41:21 86° SSE 23:05:34 10° E visible
25 Nov - 00:49:04 10° W 01:15:54 85° SSW 01:34:26 10° ESE visible
25 Nov - 03:23:49 10° WNW 03:46:20 52° SW 03:59:25 10° SE visible
25 Nov - 06:04:40 10° W 06:11:17 13° WSW 06:16:36 10° SW visible
25 Nov - 18:39:20 10° SSW 18:54:58 43° SE 19:17:49 10° ENE visible
25 Nov - 21:04:07 10° WSW 21:25:38 78° SSE 21:51:33 10° ENE visible
25 Nov - 23:34:08 10° W 00:00:19 89° S 00:22:02 10° E visible
26 Nov - 02:07:37 10° WNW 02:33:10 68° SSW 02:48:59 10° SE visible
26 Nov - 04:44:18 10° W 05:00:22 28° SW 05:10:46 10° S visible
26 Nov - 17:30:26 10° S 17:42:41 28° SE 18:00:21 10° E visible
26 Nov - 19:52:19 10° SW 20:10:46 66° SSE 20:36:41 10° ENE visible
26 Nov - 22:20:07 10° W 22:44:15 88° S 23:08:44 10° E visible
